Location: Mentone
(34.5413°N, 85.5351°W)
Time: 02:30:01
(UTC-05:00)

UOSAT-12 - Visible Passes

Search period start: 16 April 2014 00:00
Search period end: 26 April 2014 00:00
Orbit: 598 x 661 km, 64.6° (Epoch: 15 April)

Date Brightness Start Highest point End Pass type
(mag) Time Alt. Az. Time Alt. Az. Time Alt. Az.
16 Apr 9.1 03:01:37 10° N 03:05:19 27° NE 03:05:19 27° NE visible
16 Apr 9.2 04:41:43 10° NW 04:42:19 13° WNW 04:42:19 13° WNW visible
17 Apr 9.6 03:21:49 10° NNW 03:22:28 14° NNW 03:22:28 14° NNW visible
18 Apr 10.3 02:03:37 10° N 02:03:53 11° N 02:03:53 11° N visible
